CZ-3C DEB, 40174

Orbit data source: Space-Track

CZ-3C DEB, 40174 is space debris in HEO originally from a launch on Sun, 31 Oct 2010 UTC launched from the Xichang Space Center, China (XSC). Debris objects in space refer to the collection of defunct objects orbiting the Earth. Examples of debris include non-operational satellites, rocket bodies, and fragments generated from explosions, collisions, or faulty payload assembly.

Loading next visibility...
Identifier
40174, 2010-057AC
Orbit
HEO
Last TLE update
5 days ago
Origin
Manufacturer
CALT
Mission
Spacecraft
Bus & Motor
Unknown
Mass
Unknown
Launch date (UTC)
2010-10-31 (15 years ago)
Launch vehicle
Unknown
Launch site
Xichang Space Center, China (XSC)
Object type
Payload
Rocket body
Debris
Shape & HBR
Unknown
Radar Cross Section
Medium (>0.1 m² and <1 m²)

Expand to show TLE details & history

TLE from 5 days ago
0 CZ-3C DEB
1 40174U 10057AC  25124.61544480  .00000153  00000-0  18247-2 0  9998
2 40174  19.9841  95.6896 7099959 175.5569 358.3023  2.34816448116157
Epoch: 2025-05-04T14:46Z
Definitive object data (Epoch: 2025-05-04T14:46:14.43Z)
Latitude
5.88846°
Longitude
174.97322°
Altitude
628.479 km
Speed
9.854 km/s
True Right ascension
17h 17m 05s
True Declination
5° 51' 10"
Sunlit
Object was in full shadow at TLE epoch
Visualization TLE readout
Latitude
19.58611°
Longitude
87.29199°
Altitude
7,198.706 km
Speed
6.485 km/s
Apparent Right ascension
10h 00m 56s
Apparent Declination
2° 34' 13"
Sunlit
Object is in daylight
Visualization observer readout
Local Sidereal Time
14:48:56
Azimuth
260.223° W
Elevation
15.401°
Doppler factor
1
Orbital elements
Apogee altitude
34,515.637 km
Perigee altitude
557.179 km
Semi-major axis
23,914.545 km
Eccentricity
0.7099959
Inclination
19.9841°
RAAN
95.6896°
Arg. of periapsis
175.5569°
True anomaly
345.90389°
Mean anomaly
358.3023°
Eccentric anomaly
354.17055°
Mean motion
0.58688 °/min
BSTAR
0.0018247
Orbital period
613.41 mins
Loading maneuver chart data...
Loading SW <> Apogee altitude chart data...
Loading historical data...
Loading historical data...
Loading historical data...
Loading historical data...
Loading historical data...
Loading historical data...
Loading historical data...

CZ-3C DEB Visibility forecast

Observer location: undefined°, undefined°

Span
Click to sort rows by Start time (UTC) header in descending order
Start Az.
Max El. time (UTC)
Max El. Az.
Max El.
End time (UTC)
End Az.
25 mins2025-05-09 06:40:04.010Z260.164° W2025-05-09 06:57:04.010Z227.607° WSW21.826°2025-05-09 07:05:04.010Z173.444° S
545 mins2025-05-09 18:19:04.010Z187.13° SSW2025-05-10 03:00:04.010Z190.614° SSW39.177°2025-05-10 03:24:04.010Z117.729° SE
|